Starlink 11112

operational
NORAD ID: 60115 Int'l Des: 2024-118 Owner: SPXS Country: US Constellation: starlink
LEOCIRCULAR

Starlink 11112について

説明を読み込み中...

リアルタイム位置

3D地球を読み込み中...

次回通過

高度履歴

Altitude vs Time

uPlot chart will show altitude changes over time

軌道要素

1 60115U 24118C 25353.04020942 .00000187 00000-0 63999-5 0 9995
2 60115 53.1586 259.0370 0001036 83.4014 276.7122 15.69701425 85324
Epoch: Dec 19, 2025 • Age: 22 hours

現在のステータス

高度 377.3 km
速度 7.68 km/s
衛星直下点 -49.08°S, 53.56°E
打ち上げ日 Jun 24, 2024
運用期間 1.4 years
タイプ internet

技術仕様

分類 Payload
質量 960.00 kg
乾燥質量 910.00 kg
総質量 960.00 kg
長さ 0.30 m
直径 4.10 m
スパン 29.00 m
形状 Box + pan
製造者 SPXS
バスタイプ Starlink V2MD
フェーズステータス In Orbit
所有者/国 SPXS/US

大規模コンステレーション

Loading constellations...